Saint Bonnet de Bellac- Haute Vienne - France
Donnes mto: mercredi, 19/09/2012
Date Horaire Temp. E. Hum. E. P.atmo. Pluie Vent Direction Direction Ensoleilleme Solaire P. de rose Temp au vent Rafales
19/09/2012 00:00 14,1 C 88 % 1018,3 hPa 0,0 mm 0,4 km/h (0 Bft) NO 315 0 min 0 W/m 12,1 C 14,1 C 0,4 km/h (0 Bft)
19/09/2012 00:10 14,1 C 86 % 1018,4 hPa 0,0 mm 0,0 km/h (0 Bft) N-NE 22 0 min 0 W/m 11,8 C 14,1 C 0,0 km/h (0 Bft)
19/09/2012 00:20 14,1 C 85 % 1018,4 hPa 0,0 mm 0,0 km/h (0 Bft) N 360 0 min 0 W/m 11,6 C 14,1 C 0,0 km/h (0 Bft)
19/09/2012 00:30 14,0 C 84 % 1018,4 hPa 0,0 mm 0,4 km/h (0 Bft) N-NE 22 0 min 0 W/m 11,3 C 14,0 C 0,4 km/h (0 Bft)
19/09/2012 00:40 13,9 C 83 % 1018,6 hPa 0,0 mm 7,9 km/h (2 Bft) N 360 0 min 0 W/m 11,1 C 13,9 C 11,2 km/h (2 Bft)
19/09/2012 00:50 13,8 C 81 % 1018,6 hPa 0,0 mm 1,8 km/h (1 Bft) N 360 0 min 0 W/m 10,6 C 13,8 C 7,2 km/h (2 Bft)
19/09/2012 01:00 13,8 C 81 % 1018,8 hPa 0,0 mm 0,4 km/h (0 Bft) N-NE 22 0 min 0 W/m 10,6 C 13,8 C 0,4 km/h (0 Bft)
19/09/2012 01:10 13,7 C 80 % 1018,8 hPa 0,0 mm 1,4 km/h (1 Bft) N-NE 22 0 min 0 W/m 10,3 C 13,7 C 4,0 km/h (1 Bft)
19/09/2012 01:20 13,6 C 80 % 1018,8 hPa 0,0 mm 0,0 km/h (0 Bft) N 360 0 min 0 W/m 10,2 C 13,6 C 0,0 km/h (0 Bft)
19/09/2012 01:30 13,4 C 79 % 1018,9 hPa 0,0 mm 3,2 km/h (1 Bft) N 360 0 min 0 W/m 9,8 C 13,4 C 4,0 km/h (1 Bft)
19/09/2012 01:40 13,3 C 79 % 1019,0 hPa 0,0 mm 0,0 km/h (0 Bft) N-NE 22 0 min 0 W/m 9,7 C 13,3 C 0,0 km/h (0 Bft)
19/09/2012 01:50 13,2 C 79 % 1019,0 hPa 0,0 mm 0,0 km/h (0 Bft) N-NE 22 0 min 0 W/m 9,6 C 13,2 C 0,0 km/h (0 Bft)
19/09/2012 02:00 13,1 C 79 % 1019,0 hPa 0,0 mm 1,1 km/h (1 Bft) NE 45 0 min 0 W/m 9,5 C 13,1 C 4,0 km/h (1 Bft)
19/09/2012 02:10 13,0 C 79 % 1019,1 hPa 0,0 mm 0,0 km/h (0 Bft) N-NE 22 0 min 0 W/m 9,4 C 13,0 C 0,0 km/h (0 Bft)
19/09/2012 02:20 12,9 C 79 % 1019,1 hPa 0,0 mm 0,4 km/h (0 Bft) N-NE 22 0 min 0 W/m 9,3 C 12,9 C 0,4 km/h (0 Bft)
19/09/2012 02:30 12,8 C 79 % 1019,3 hPa 0,0 mm 0,0 km/h (0 Bft) N-NE 22 0 min 0 W/m 9,2 C 12,8 C 0,0 km/h (0 Bft)
19/09/2012 02:40 12,6 C 79 % 1019,4 hPa 0,0 mm 0,0 km/h (0 Bft) NE 45 0 min 0 W/m 9,1 C 12,6 C 0,0 km/h (0 Bft)
19/09/2012 02:50 12,5 C 79 % 1019,4 hPa 0,0 mm 0,0 km/h (0 Bft) N-NE 22 0 min 0 W/m 9,0 C 12,5 C 0,0 km/h (0 Bft)
19/09/2012 03:02 12,4 C 78 % 1019,5 hPa 0,0 mm 2,9 km/h (1 Bft) N 360 0 min 0 W/m 8,7 C 12,4 C 7,2 km/h (2 Bft)
19/09/2012 03:10 12,3 C 78 % 1019,4 hPa 0,0 mm 1,1 km/h (1 Bft) N-NE 22 0 min 0 W/m 8,6 C 12,3 C 4,0 km/h (1 Bft)
19/09/2012 03:20 11,9 C 78 % 1019,4 hPa 0,0 mm 0,4 km/h (0 Bft) N-NO 337 0 min 0 W/m 8,2 C 11,9 C 4,0 km/h (1 Bft)
19/09/2012 03:30 11,6 C 79 % 1019,4 hPa 0,0 mm 1,8 km/h (1 Bft) N-NE 22 0 min 0 W/m 8,1 C 11,6 C 9,7 km/h (2 Bft)
19/09/2012 03:40 11,4 C 79 % 1019,4 hPa 0,0 mm 1,8 km/h (1 Bft) N-NE 22 0 min 0 W/m 7,9 C 11,4 C 4,0 km/h (1 Bft)
19/09/2012 03:50 11,1 C 79 % 1019,5 hPa 0,0 mm 3,2 km/h (1 Bft) N-NE 22 0 min 0 W/m 7,6 C 11,1 C 3,6 km/h (1 Bft)
19/09/2012 04:00 10,9 C 80 % 1019,5 hPa 0,0 mm 2,2 km/h (1 Bft) E-NE 67 0 min 0 W/m 7,6 C 10,9 C 3,6 km/h (1 Bft)
19/09/2012 04:10 10,6 C 80 % 1019,5 hPa 0,0 mm 0,0 km/h (0 Bft) N-NE 22 0 min 0 W/m 7,3 C 10,6 C 0,0 km/h (0 Bft)
19/09/2012 04:20 10,4 C 80 % 1019,6 hPa 0,0 mm 0,0 km/h (0 Bft) N-NE 22 0 min 0 W/m 7,1 C 10,4 C 0,0 km/h (0 Bft)
19/09/2012 04:30 10,1 C 80 % 1019,6 hPa 0,0 mm 1,8 km/h (1 Bft) N-NE 22 0 min 0 W/m 6,8 C 10,1 C 4,0 km/h (1 Bft)
19/09/2012 04:40 9,8 C 81 % 1019,6 hPa 0,0 mm 0,4 km/h (0 Bft) N 360 0 min 0 W/m 6,7 C 9,8 C 2,9 km/h (1 Bft)
19/09/2012 04:50 9,4 C 81 % 1019,7 hPa 0,0 mm 1,4 km/h (1 Bft) N 360 0 min 0 W/m 6,3 C 9,4 C 7,2 km/h (2 Bft)
19/09/2012 05:00 9,2 C 82 % 1019,7 hPa 0,0 mm 0,0 km/h (0 Bft) N-NE 22 0 min 0 W/m 6,3 C 9,2 C 0,0 km/h (0 Bft)
19/09/2012 05:10 8,9 C 82 % 1019,6 hPa 0,0 mm 0,0 km/h (0 Bft) N-NE 22 0 min 0 W/m 6,0 C 8,9 C 0,0 km/h (0 Bft)
19/09/2012 05:20 8,6 C 82 % 1019,6 hPa 0,0 mm 0,0 km/h (0 Bft) NO 315 0 min 0 W/m 5,7 C 8,6 C 0,0 km/h (0 Bft)
19/09/2012 05:30 8,3 C 83 % 1019,7 hPa 0,0 mm 0,0 km/h (0 Bft) N 360 0 min 0 W/m 5,6 C 8,3 C 0,0 km/h (0 Bft)
19/09/2012 05:40 8,2 C 84 % 1019,7 hPa 0,0 mm 0,0 km/h (0 Bft) N 360 0 min 0 W/m 5,7 C 8,2 C 0,0 km/h (0 Bft)
19/09/2012 05:50 8,1 C 84 % 1019,8 hPa 0,0 mm 0,0 km/h (0 Bft) N-NO 337 0 min 0 W/m 5,6 C 8,1 C 0,0 km/h (0 Bft)
19/09/2012 06:00 8,2 C 85 % 1019,8 hPa 0,0 mm 1,4 km/h (1 Bft) N-NE 22 0 min 0 W/m 5,8 C 8,2 C 3,2 km/h (1 Bft)
19/09/2012 06:10 8,3 C 85 % 1019,9 hPa 0,0 mm 0,0 km/h (0 Bft) N-NE 22 0 min 0 W/m 5,9 C 8,3 C 0,0 km/h (0 Bft)
19/09/2012 06:20 8,3 C 85 % 1020,0 hPa 0,0 mm 2,5 km/h (1 Bft) N 360 0 min 0 W/m 5,9 C 8,3 C 2,9 km/h (1 Bft)
19/09/2012 06:30 8,3 C 85 % 1020,1 hPa 0,0 mm 0,0 km/h (0 Bft) N 360 0 min 0 W/m 5,9 C 8,3 C 0,0 km/h (0 Bft)
19/09/2012 06:40 8,2 C 85 % 1020,3 hPa 0,0 mm 1,4 km/h (1 Bft) N-NO 337 0 min 0 W/m 5,8 C 8,2 C 1,4 km/h (1 Bft)
19/09/2012 06:50 8,1 C 86 % 1020,4 hPa 0,0 mm 1,4 km/h (1 Bft) N 360 0 min 0 W/m 5,9 C 8,1 C 4,0 km/h (1 Bft)
19/09/2012 07:00 7,9 C 86 % 1020,5 hPa 0,0 mm 0,0 km/h (0 Bft) N 360 0 min 0 W/m 5,7 C 7,9 C 0,0 km/h (0 Bft)
19/09/2012 07:10 7,8 C 86 % 1020,6 hPa 0,0 mm 0,4 km/h (0 Bft) N 360 0 min 0 W/m 5,6 C 7,8 C 0,4 km/h (0 Bft)
19/09/2012 07:20 7,6 C 86 % 1020,7 hPa 0,0 mm 0,0 km/h (0 Bft) N 360 0 min 0 W/m 5,4 C 7,6 C 0,0 km/h (0 Bft)
19/09/2012 07:30 7,3 C 86 % 1020,8 hPa 0,0 mm 0,0 km/h (0 Bft) N 360 0 min 0 W/m 5,1 C 7,3 C 0,0 km/h (0 Bft)
19/09/2012 07:40 7,1 C 86 % 1021,0 hPa 0,0 mm 0,0 km/h (0 Bft) N 360 0 min 0 W/m 4,9 C 7,1 C 0,0 km/h (0 Bft)
19/09/2012 07:50 6,8 C 87 % 1021,1 hPa 0,0 mm 0,0 km/h (0 Bft) N 360 0 min 0 W/m 4,8 C 6,8 C 0,0 km/h (0 Bft)
19/09/2012 08:00 6,8 C 86 % 1021,1 hPa 0,0 mm 0,0 km/h (0 Bft) N 360 0 min 0 W/m 4,6 C 6,8 C 0,0 km/h (0 Bft)
19/09/2012 08:10 6,7 C 87 % 1021,2 hPa 0,0 mm 0,0 km/h (0 Bft) N 360 0 min 0 W/m 4,7 C 6,7 C 0,0 km/h (0 Bft)
19/09/2012 08:20 6,8 C 87 % 1021,3 hPa 0,0 mm 0,0 km/h (0 Bft) N 360 0 min 0 W/m 4,8 C 6,8 C 0,0 km/h (0 Bft)
19/09/2012 08:30 6,8 C 88 % 1021,3 hPa 0,0 mm 0,0 km/h (0 Bft) N 360 0 min 0 W/m 5,0 C 6,8 C 0,0 km/h (0 Bft)
19/09/2012 08:40 6,8 C 88 % 1021,4 hPa 0,0 mm 0,0 km/h (0 Bft) N 360 0 min 0 W/m 5,0 C 6,8 C 0,0 km/h (0 Bft)
19/09/2012 08:50 7,5 C 90 % 1021,4 hPa 0,0 mm 0,4 km/h (0 Bft) N-NE 22 0 min 0 W/m 6,0 C 7,5 C 1,4 km/h (1 Bft)
19/09/2012 09:00 8,5 C 90 % 1021,6 hPa 0,0 mm 0,0 km/h (0 Bft) N-NE 22 0 min 0 W/m 7,0 C 8,5 C 0,0 km/h (0 Bft)
19/09/2012 09:10 9,5 C 90 % 1021,6 hPa 0,0 mm 2,2 km/h (1 Bft) N-NE 22 0 min 0 W/m 7,9 C 9,5 C 4,3 km/h (1 Bft)
19/09/2012 09:20 10,4 C 87 % 1021,6 hPa 0,0 mm 1,4 km/h (1 Bft) N-NE 22 0 min 0 W/m 8,3 C 10,4 C 5,4 km/h (2 Bft)
19/09/2012 09:30 11,3 C 86 % 1021,9 hPa 0,0 mm 1,4 km/h (1 Bft) N 360 0 min 0 W/m 9,0 C 11,3 C 1,4 km/h (1 Bft)
19/09/2012 09:40 12,1 C 83 % 1021,9 hPa 0,0 mm 0,0 km/h (0 Bft) NE 45 0 min 0 W/m 9,3 C 12,1 C 0,0 km/h (0 Bft)
19/09/2012 09:50 12,9 C 80 % 1022,1 hPa 0,0 mm 2,2 km/h (1 Bft) N 360 0 min 0 W/m 9,5 C 12,9 C 6,8 km/h (2 Bft)
19/09/2012 10:00 13,6 C 78 % 1022,2 hPa 0,0 mm 5,4 km/h (2 Bft) N 360 0 min 0 W/m 9,8 C 13,6 C 6,8 km/h (2 Bft)
19/09/2012 10:10 14,3 C 75 % 1022,3 hPa 0,0 mm 1,1 km/h (1 Bft) N-NE 22 0 min 0 W/m 9,9 C 14,3 C 4,3 km/h (1 Bft)
19/09/2012 10:20 14,9 C 74 % 1022,4 hPa 0,0 mm 1,4 km/h (1 Bft) N-NE 22 0 min 0 W/m 10,3 C 14,9 C 2,9 km/h (1 Bft)
19/09/2012 10:30 15,6 C 70 % 1022,5 hPa 0,0 mm 0,4 km/h (0 Bft) N-NE 22 0 min 0 W/m 10,1 C 15,6 C 0,4 km/h (0 Bft)
19/09/2012 10:40 16,2 C 68 % 1022,6 hPa 0,0 mm 5,0 km/h (1 Bft) N-NE 22 0 min 0 W/m 10,3 C 16,2 C 8,6 km/h (2 Bft)
19/09/2012 10:50 16,8 C 66 % 1022,6 hPa 0,0 mm 1,1 km/h (1 Bft) N-NE 22 0 min 0 W/m 10,4 C 16,8 C 3,2 km/h (1 Bft)
19/09/2012 11:00 17,5 C 64 % 1022,7 hPa 0,0 mm 5,4 km/h (2 Bft) NE 45 0 min 0 W/m 10,6 C 17,5 C 8,6 km/h (2 Bft)
19/09/2012 11:10 17,8 C 63 % 1022,8 hPa 0,0 mm 5,4 km/h (2 Bft) N-NE 22 0 min 0 W/m 10,7 C 17,8 C 6,8 km/h (2 Bft)
19/09/2012 11:20 18,0 C 60 % 1022,9 hPa 0,0 mm 1,8 km/h (1 Bft) NE 45 0 min 0 W/m 10,1 C 18,0 C 4,0 km/h (1 Bft)
19/09/2012 11:30 18,4 C 58 % 1023,0 hPa 0,0 mm 0,0 km/h (0 Bft) N-NE 22 0 min 0 W/m 10,0 C 18,4 C 0,0 km/h (0 Bft)
19/09/2012 11:40 18,9 C 57 % 1023,1 hPa 0,0 mm 2,5 km/h (1 Bft) NE 45 0 min 0 W/m 10,2 C 18,9 C 2,9 km/h (1 Bft)
19/09/2012 11:50 19,3 C 55 % 1023,3 hPa 0,0 mm 5,0 km/h (1 Bft) E 90 0 min 0 W/m 10,0 C 19,3 C 8,3 km/h (2 Bft)
19/09/2012 12:00 18,9 C 52 % 1023,2 hPa 0,0 mm 6,5 km/h (2 Bft) N-NE 22 0 min 0 W/m 8,8 C 18,9 C 11,9 km/h (2 Bft)
19/09/2012 12:10 18,8 C 53 % 1023,3 hPa 0,0 mm 5,8 km/h (2 Bft) NE 45 0 min 0 W/m 9,0 C 18,8 C 5,8 km/h (2 Bft)
19/09/2012 12:20 18,9 C 51 % 1023,2 hPa 0,0 mm 4,0 km/h (1 Bft) N 360 0 min 0 W/m 8,5 C 18,9 C 6,5 km/h (2 Bft)
19/09/2012 12:30 19,4 C 50 % 1023,2 hPa 0,0 mm 7,2 km/h (2 Bft) N-NO 337 0 min 0 W/m 8,7 C 19,4 C 7,2 km/h (2 Bft)
19/09/2012 12:40 18,9 C 48 % 1023,2 hPa 0,0 mm 6,5 km/h (2 Bft) N 360 0 min 0 W/m 7,6 C 18,9 C 9,7 km/h (2 Bft)
19/09/2012 12:50 18,4 C 47 % 1023,3 hPa 0,0 mm 6,5 km/h (2 Bft) E-NE 67 0 min 0 W/m 6,9 C 18,4 C 6,5 km/h (2 Bft)
19/09/2012 13:00 18,8 C 48 % 1023,2 hPa 0,0 mm 6,5 km/h (2 Bft) E-NE 67 0 min 0 W/m 7,6 C 18,8 C 7,2 km/h (2 Bft)
19/09/2012 13:10 18,8 C 47 % 1023,2 hPa 0,0 mm 6,5 km/h (2 Bft) N-NE 22 0 min 0 W/m 7,2 C 18,8 C 12,2 km/h (2 Bft)
19/09/2012 13:20 18,9 C 46 % 1023,2 hPa 0,0 mm 5,4 km/h (2 Bft) NE 45 0 min 0 W/m 7,0 C 18,9 C 9,7 km/h (2 Bft)
19/09/2012 13:30 19,1 C 46 % 1023,2 hPa 0,0 mm 3,6 km/h (1 Bft) NE 45 0 min 0 W/m 7,2 C 19,1 C 6,5 km/h (2 Bft)
19/09/2012 13:40 19,4 C 45 % 1023,2 hPa 0,0 mm 3,6 km/h (1 Bft) N 360 0 min 0 W/m 7,2 C 19,4 C 3,6 km/h (1 Bft)
19/09/2012 13:50 19,5 C 45 % 1023,1 hPa 0,0 mm 5,8 km/h (2 Bft) N-NO 337 0 min 0 W/m 7,2 C 19,5 C 7,9 km/h (2 Bft)
19/09/2012 14:00 19,6 C 45 % 1023,1 hPa 0,0 mm 3,2 km/h (1 Bft) O-NO 292 0 min 0 W/m 7,3 C 19,6 C 6,5 km/h (2 Bft)
19/09/2012 14:10 19,9 C 44 % 1023,0 hPa 0,0 mm 7,9 km/h (2 Bft) N-NE 22 0 min 0 W/m 7,3 C 19,9 C 12,6 km/h (3 Bft)
19/09/2012 14:20 19,9 C 43 % 1023,1 hPa 0,0 mm 4,7 km/h (1 Bft) N-NE 22 0 min 0 W/m 6,9 C 19,9 C 8,6 km/h (2 Bft)
19/09/2012 14:30 19,8 C 44 % 1023,0 hPa 0,0 mm 2,9 km/h (1 Bft) N 360 0 min 0 W/m 7,2 C 19,8 C 4,0 km/h (1 Bft)
19/09/2012 14:40 19,8 C 42 % 1022,9 hPa 0,0 mm 3,2 km/h (1 Bft) N-NE 22 0 min 0 W/m 6,5 C 19,8 C 3,6 km/h (1 Bft)
19/09/2012 14:50 20,1 C 42 % 1022,7 hPa 0,0 mm 7,2 km/h (2 Bft) O 270 0 min 0 W/m 6,8 C 20,1 C 11,2 km/h (2 Bft)
19/09/2012 15:00 20,0 C 41 % 1022,6 hPa 0,0 mm 8,6 km/h (2 Bft) N-NE 22 0 min 0 W/m 6,3 C 20,0 C 8,6 km/h (2 Bft)
19/09/2012 15:10 19,9 C 41 % 1022,4 hPa 0,0 mm 4,0 km/h (1 Bft) N 360 0 min 0 W/m 6,3 C 19,9 C 7,2 km/h (2 Bft)
19/09/2012 15:20 19,9 C 41 % 1022,3 hPa 0,0 mm 5,0 km/h (1 Bft) N-NO 337 0 min 0 W/m 6,3 C 19,9 C 5,0 km/h (1 Bft)
19/09/2012 15:30 19,9 C 40 % 1022,3 hPa 0,0 mm 10,8 km/h (2 Bft) NE 45 0 min 0 W/m 5,9 C 19,9 C 16,2 km/h (3 Bft)
19/09/2012 15:40 19,8 C 41 % 1022,3 hPa 0,0 mm 4,7 km/h (1 Bft) N-NO 337 0 min 0 W/m 6,2 C 19,8 C 5,8 km/h (2 Bft)
19/09/2012 15:50 19,8 C 40 % 1022,3 hPa 0,0 mm 12,6 km/h (3 Bft) NE 45 0 min 0 W/m 5,8 C 19,8 C 18,7 km/h (3 Bft)
19/09/2012 16:00 19,6 C 39 % 1022,4 hPa 0,0 mm 3,6 km/h (1 Bft) N 360 0 min 0 W/m 5,3 C 19,6 C 3,6 km/h (1 Bft)
19/09/2012 16:10 19,5 C 39 % 1022,3 hPa 0,0 mm 3,2 km/h (1 Bft) NO 315 0 min 0 W/m 5,2 C 19,5 C 6,1 km/h (2 Bft)
19/09/2012 16:20 19,4 C 39 % 1022,2 hPa 0,0 mm 3,2 km/h (1 Bft) N-NO 337 0 min 0 W/m 5,1 C 19,4 C 6,1 km/h (2 Bft)
19/09/2012 16:30 19,6 C 39 % 1022,1 hPa 0,0 mm 3,6 km/h (1 Bft) N-NE 22 0 min 0 W/m 5,3 C 19,6 C 3,6 km/h (1 Bft)
19/09/2012 16:40 19,8 C 38 % 1022,2 hPa 0,0 mm 7,2 km/h (2 Bft) N-NE 22 0 min 0 W/m 5,1 C 19,8 C 11,2 km/h (2 Bft)
19/09/2012 16:50 19,8 C 38 % 1022,1 hPa 0,0 mm 8,6 km/h (2 Bft) N-NO 337 0 min 0 W/m 5,1 C 19,8 C 11,9 km/h (2 Bft)
19/09/2012 17:00 19,8 C 38 % 1022,0 hPa 0,0 mm 8,6 km/h (2 Bft) N 360 0 min 0 W/m 5,1 C 19,8 C 8,6 km/h (2 Bft)
19/09/2012 17:10 19,8 C 39 % 1022,2 hPa 0,0 mm 3,6 km/h (1 Bft) NE 45 0 min 0 W/m 5,4 C 19,8 C 7,9 km/h (2 Bft)
19/09/2012 17:20 19,7 C 38 % 1022,1 hPa 0,0 mm 5,0 km/h (1 Bft) NE 45 0 min 0 W/m 5,0 C 19,7 C 5,0 km/h (1 Bft)
19/09/2012 17:30 19,6 C 37 % 1022,1 hPa 0,0 mm 2,9 km/h (1 Bft) NE 45 0 min 0 W/m 4,5 C 19,6 C 4,0 km/h (1 Bft)
19/09/2012 17:40 19,5 C 37 % 1022,0 hPa 0,0 mm 4,7 km/h (1 Bft) NE 45 0 min 0 W/m 4,4 C 19,5 C 8,6 km/h (2 Bft)
19/09/2012 17:50 19,4 C 37 % 1021,9 hPa 0,0 mm 2,9 km/h (1 Bft) N 360 0 min 0 W/m 4,3 C 19,4 C 8,3 km/h (2 Bft)
19/09/2012 18:00 19,4 C 37 % 1022,1 hPa 0,0 mm 3,2 km/h (1 Bft) N-NE 22 0 min 0 W/m 4,3 C 19,4 C 3,2 km/h (1 Bft)
19/09/2012 18:10 19,3 C 37 % 1022,1 hPa 0,0 mm 5,0 km/h (1 Bft) NE 45 0 min 0 W/m 4,2 C 19,3 C 9,0 km/h (2 Bft)
19/09/2012 18:20 19,1 C 36 % 1022,1 hPa 0,0 mm 6,5 km/h (2 Bft) NE 45 0 min 0 W/m 3,7 C 19,1 C 6,5 km/h (2 Bft)
19/09/2012 18:30 19,0 C 37 % 1022,1 hPa 0,0 mm 3,6 km/h (1 Bft) N-NO 337 0 min 0 W/m 4,0 C 19,0 C 9,4 km/h (2 Bft)
19/09/2012 18:40 18,8 C 37 % 1022,1 hPa 0,0 mm 4,0 km/h (1 Bft) N-NE 22 0 min 0 W/m 3,8 C 18,8 C 6,8 km/h (2 Bft)
19/09/2012 18:50 18,5 C 37 % 1022,0 hPa 0,0 mm 5,0 km/h (1 Bft) N-NE 22 0 min 0 W/m 3,5 C 18,5 C 9,0 km/h (2 Bft)
19/09/2012 19:00 18,1 C 38 % 1022,0 hPa 0,0 mm 0,0 km/h (0 Bft) NE 45 0 min 0 W/m 3,6 C 18,1 C 0,0 km/h (0 Bft)
19/09/2012 19:10 17,5 C 38 % 1022,1 hPa 0,0 mm 3,2 km/h (1 Bft) N-NE 22 0 min 0 W/m 3,0 C 17,5 C 6,8 km/h (2 Bft)
19/09/2012 19:20 17,1 C 40 % 1022,2 hPa 0,0 mm 0,0 km/h (0 Bft) N-NE 22 0 min 0 W/m 3,4 C 17,1 C 0,0 km/h (0 Bft)
19/09/2012 19:30 16,6 C 41 % 1022,3 hPa 0,0 mm 0,0 km/h (0 Bft) N 360 0 min 0 W/m 3,3 C 16,6 C 0,0 km/h (0 Bft)
19/09/2012 19:40 16,2 C 42 % 1022,2 hPa 0,0 mm 0,0 km/h (0 Bft) N-NE 22 0 min 0 W/m 3,3 C 16,2 C 0,0 km/h (0 Bft)
19/09/2012 19:50 15,6 C 43 % 1022,3 hPa 0,0 mm 0,0 km/h (0 Bft) NE 45 0 min 0 W/m 3,1 C 15,6 C 0,0 km/h (0 Bft)
19/09/2012 20:00 15,1 C 44 % 1022,4 hPa 0,0 mm 0,0 km/h (0 Bft) N-NE 22 0 min 0 W/m 2,9 C 15,1 C 0,0 km/h (0 Bft)
19/09/2012 20:10 14,5 C 45 % 1022,5 hPa 0,0 mm 0,0 km/h (0 Bft) N-NE 22 0 min 0 W/m 2,7 C 14,5 C 0,0 km/h (0 Bft)
19/09/2012 20:20 14,0 C 46 % 1022,6 hPa 0,0 mm 0,0 km/h (0 Bft) N 360 0 min 0 W/m 2,6 C 14,0 C 0,0 km/h (0 Bft)
19/09/2012 20:30 13,4 C 47 % 1022,5 hPa 0,0 mm 0,0 km/h (0 Bft) N 360 0 min 0 W/m 2,3 C 13,4 C 0,0 km/h (0 Bft)
19/09/2012 20:40 13,1 C 48 % 1022,7 hPa 0,0 mm 0,0 km/h (0 Bft) N-NE 22 0 min 0 W/m 2,3 C 13,1 C 0,0 km/h (0 Bft)
19/09/2012 20:50 12,6 C 49 % 1022,7 hPa 0,0 mm 0,0 km/h (0 Bft) N 360 0 min 0 W/m 2,2 C 12,6 C 0,0 km/h (0 Bft)
19/09/2012 21:00 12,2 C 50 % 1022,7 hPa 0,0 mm 0,0 km/h (0 Bft) N 360 0 min 0 W/m 2,1 C 12,2 C 0,0 km/h (0 Bft)
19/09/2012 21:10 11,8 C 51 % 1022,8 hPa 0,0 mm 0,0 km/h (0 Bft) N 360 0 min 0 W/m 2,0 C 11,8 C 0,0 km/h (0 Bft)
19/09/2012 21:20 11,3 C 53 % 1022,9 hPa 0,0 mm 0,0 km/h (0 Bft) N-NE 22 0 min 0 W/m 2,1 C 11,3 C 0,0 km/h (0 Bft)
19/09/2012 21:30 10,9 C 53 % 1023,0 hPa 0,0 mm 1,1 km/h (1 Bft) N-NO 337 0 min 0 W/m 1,7 C 10,9 C 3,2 km/h (1 Bft)
19/09/2012 21:40 10,7 C 55 % 1023,0 hPa 0,0 mm 0,0 km/h (0 Bft) N 360 0 min 0 W/m 2,0 C 10,7 C 0,0 km/h (0 Bft)
19/09/2012 21:50 10,5 C 55 % 1023,1 hPa 0,0 mm 0,0 km/h (0 Bft) N 360 0 min 0 W/m 1,8 C 10,5 C 0,0 km/h (0 Bft)
19/09/2012 22:00 10,1 C 56 % 1023,2 hPa 0,0 mm 0,0 km/h (0 Bft) N-NO 337 0 min 0 W/m 1,7 C 10,1 C 0,0 km/h (0 Bft)
19/09/2012 22:10 9,7 C 57 % 1023,3 hPa 0,0 mm 0,0 km/h (0 Bft) N-NE 22 0 min 0 W/m 1,6 C 9,7 C 0,0 km/h (0 Bft)
19/09/2012 22:20 9,5 C 59 % 1023,2 hPa 0,0 mm 1,8 km/h (1 Bft) N-NE 22 0 min 0 W/m 1,9 C 9,5 C 4,3 km/h (1 Bft)
19/09/2012 22:30 9,4 C 59 % 1023,3 hPa 0,0 mm 0,0 km/h (0 Bft) N-NO 337 0 min 0 W/m 1,8 C 9,4 C 0,0 km/h (0 Bft)
19/09/2012 22:40 9,2 C 60 % 1023,4 hPa 0,0 mm 0,0 km/h (0 Bft) N 360 0 min 0 W/m 1,8 C 9,2 C 0,0 km/h (0 Bft)
19/09/2012 22:50 8,8 C 61 % 1023,2 hPa 0,0 mm 0,0 km/h (0 Bft) NO 315 0 min 0 W/m 1,7 C 8,8 C 0,0 km/h (0 Bft)
19/09/2012 23:00 8,3 C 62 % 1023,2 hPa 0,0 mm 0,0 km/h (0 Bft) O-SO 247 0 min 0 W/m 1,5 C 8,3 C 0,0 km/h (0 Bft)
19/09/2012 23:10 8,1 C 63 % 1023,3 hPa 0,0 mm 0,0 km/h (0 Bft) O-SO 247 0 min 0 W/m 1,5 C 8,1 C 0,0 km/h (0 Bft)
_ Min-Heure 08:10 18:20 00:00 - 23:10 - - - - 23:00 08:10 23:10
Minimum _ 6,7 C 36 % 1018,3 hPa - 0,0 km/h (0 Bft) - - - - 1,5 C 6,7 C 0,0 km/h (0 Bft)
_ Max-Heure 14:50 09:10 22:40 23:10 15:50 - - 23:10 23:10 00:00 14:50 15:50
Maximum _ 20,1 C 90 % 1023,4 hPa 0,0 mm 12,6 km/h
NE (3 Bft)
- - 0 min 0 W/m 12,1 C 20,1 C 18,7 km/h
NE (3 Bft)
Moyenne _ 14,0 C 63 % 1021,5 hPa #0,0 mm 2,3 km/h (1 Bft) N-NE - #0 min. 0 W/m 6,4 C 14,0 C 3,7 km/h (1 Bft)
Saint Bonnet de Bellac- Haute Vienne - France